This demonstration page uses our WeatherBlox Daily Observations layout. Learn more.

Left ArrowRight Arrow

Hourly Observations for October 24, 2016

Temp ( °F °C ) Dew Point ( °F °C ) Humidity (%) Winds ( mph kmh ) Pressure ( in mb ) Visibility ( mi km ) Precip ( " mm )
12:15 am 00:15 Clear 54 12 46 8 77 77 SSW 5 7 29.94 1014 10 16 N/A
12:35 am 00:35 Clear 52 11 46 8 82 82 SSW 5 7 29.91 1013 10 16 N/A
12:55 am 00:55 Clear 52 11 46 8 82 82 SSW 7 11 29.91 1013 10 16 N/A
1:15 am 01:15 Clear 52 11 46 8 82 82 SSW 7 11 29.91 1013 10 16 N/A
1:35 am 01:35 Clear 54 12 46 8 77 77 SSW 8 13 29.91 1013 10 16 N/A
1:55 am 01:55 Clear 54 12 46 8 77 77 SSW 7 11 29.91 1013 10 16 N/A
2:15 am 02:15 Clear 54 12 46 8 77 77 SSW 7 11 29.91 1013 10 16 N/A
2:35 am 02:35 Clear 52 11 46 8 82 82 SSW 6 9 29.91 1013 10 16 N/A
2:55 am 02:55 Clear 52 11 46 8 82 82 S 7 11 29.91 1013 10 16 N/A
3:15 am 03:15 Partly Cloudy 52 11 46 8 82 82 S 7 11 29.91 1013 10 16 N/A
3:35 am 03:35 Mostly Cloudy 52 11 46 8 82 82 SSW 3 6 29.91 1013 10 16 N/A
3:55 am 03:55 Mostly Cloudy 52 11 46 8 82 82 SW 3 6 29.91 1013 10 16 N/A
4:15 am 04:15 Partly Cloudy 52 11 46 8 82 82 N N/A 29.91 1013 10 16 N/A
4:35 am 04:35 Partly Cloudy 50 10 46 8 88 88 W 7 11 29.91 1013 10 16 N/A
4:55 am 04:55 Partly Cloudy 50 10 46 8 88 88 W 8 13 29.94 1014 10 16 N/A
5:15 am 05:15 Partly Cloudy 54 12 48 9 82 82 W 10 17 29.94 1014 10 16 N/A
5:35 am 05:35 Clear 57 14 50 10 77 77 W 10 17 29.94 1014 10 16 N/A
5:55 am 05:55 Clear 61 16 50 10 68 68 W 10 17 29.94 1014 10 16 N/A
6:15 am 06:15 Clear 59 15 50 10 72 72 W 9 15 29.94 1014 10 16 N/A
6:35 am 06:35 Clear 57 14 50 10 77 77 W 10 17 29.97 1015 10 16 N/A
6:55 am 06:55 Clear 61 16 50 10 68 68 WNW 12 19 29.97 1015 10 16 N/A
7:15 am 07:15 Clear 59 15 50 10 72 72 WNW 13 20 29.97 1015 10 16 N/A
7:35 am 07:35 Partly Cloudy 61 16 50 10 68 68 WNW 12 19 29.97 1015 10 16 N/A
7:55 am 07:55 Mostly Cloudy 61 16 50 10 68 68 ENE 9 15 30.00 1016 10 16 N/A
8:15 am 08:15 Mostly Cloudy 59 15 50 10 72 72 NE 5 7 30.03 1017 10 16 N/A
8:35 am 08:35 Mostly Cloudy 61 16 50 10 68 68 NNE 5 7 30.03 1017 10 16 N/A
8:55 am 08:55 Partly Cloudy 61 16 50 10 68 68 NNE 5 7 30.03 1017 10 16 N/A
9:15 am 09:15 Mostly Cloudy 63 17 52 11 68 68 NE 5 7 30.03 1017 10 16 N/A
9:35 am 09:35 Mostly Cloudy 63 17 52 11 68 68 NNE 3 6 30.03 1017 10 16 N/A
9:55 am 09:55 Partly Cloudy 63 17 52 11 68 68 N N/A 30.06 1018 10 16 N/A
10:15 am 10:15 Mostly Cloudy 64 18 52 11 64 64 NNW 7 11 30.06 1018 10 16 N/A
10:35 am 10:35 Cloudy 64 18 50 10 60 60 NNW 8 13 30.06 1018 10 16 N/A
10:55 am 10:55 Mostly Cloudy 66 19 52 11 60 60 N 7 11 30.06 1018 10 16 N/A
11:15 am 11:15 Mostly Cloudy 66 19 50 10 56 56 NNW 8 13 30.06 1018 10 16 N/A
11:35 am 11:35 Partly Cloudy 68 20 50 10 53 53 NNW 12 19 30.06 1018 10 16 N/A
11:55 am 11:55 Mostly Cloudy 66 19 52 11 60 60 WNW 12 19 30.06 1018 10 16 N/A
12:15 pm 12:15 Cloudy 64 18 50 10 60 60 NNW 7 11 30.06 1018 10 16 N/A
12:35 pm 12:35 Cloudy 68 20 52 11 56 56 NNW 8 13 30.06 1018 10 16 N/A
12:55 pm 12:55 Cloudy 66 19 50 10 56 56 NW 15 24 30.06 1018 10 16 N/A
1:15 pm 13:15 Mostly Cloudy 70 21 50 10 50 50 WNW 21 33 30.03 1017 10 16 N/A
1:35 pm 13:35 Partly Cloudy 70 21 48 9 46 46 NW 21 33 30.03 1017 10 16 N/A
1:55 pm 13:55 Partly Cloudy 70 21 48 9 46 46 WNW 16 26 30.03 1017 10 16 N/A
2:15 pm 14:15 Partly Cloudy 68 20 45 7 43 43 NW 23 37 30.03 1017 10 16 N/A
2:35 pm 14:35 Partly Cloudy 68 20 45 7 43 43 NW 17 28 30.03 1017 10 16 N/A
2:55 pm 14:55 Partly Cloudy 70 21 45 7 40 40 WNW 21 33 30.03 1017 10 16 N/A
3:15 pm 15:15 Partly Cloudy 70 21 45 7 40 40 NW 22 35 30.03 1017 10 16 N/A
3:35 pm 15:35 Partly Cloudy 68 20 45 7 43 43 NW 21 33 30.06 1018 10 16 N/A
3:55 pm 15:55 Sunny 68 20 43 6 40 40 NW 28 44 30.06 1018 10 16 N/A
4:15 pm 16:15 Partly Cloudy 68 20 43 6 40 40 NNW 15 24 30.06 1018 10 16 N/A
4:35 pm 16:35 Partly Cloudy 66 19 45 7 46 46 NW 21 33 30.09 1019 10 16 N/A
4:55 pm 16:55 Sunny 66 19 41 5 40 40 NW 21 33 30.09 1019 10 16 N/A
5:15 pm 17:15 Sunny 64 18 41 5 43 43 NW 20 31 30.09 1019 10 16 N/A
5:35 pm 17:35 Sunny 64 18 39 4 40 40 NW 20 31 30.12 1020 10 16 N/A
5:55 pm 17:55 Sunny 63 17 41 5 45 45 NNW 17 28 30.12 1020 10 16 N/A
6:15 pm 18:15 Sunny 63 17 37 3 39 39 NNW 16 26 30.15 1021 10 16 N/A
6:35 pm 18:35 Clear 61 16 37 3 42 42 NNW 14 22 30.15 1021 10 16 N/A
6:55 pm 18:55 Clear 59 15 37 3 45 45 NNW 12 19 30.15 1021 10 16 N/A
7:15 pm 19:15 Clear 59 15 36 2 42 42 NNW 15 24 30.18 1022 10 16 N/A
7:35 pm 19:35 Clear 57 14 36 2 44 44 NNW 12 19 30.18 1022 10 16 N/A
7:55 pm 19:55 Clear 57 14 36 2 44 44 NNW 12 19 30.21 1023 10 16 N/A
8:15 pm 20:15 Clear 55 13 36 2 47 47 NNW 13 20 30.21 1023 10 16 N/A
8:35 pm 20:35 Clear 55 13 36 2 47 47 NNE 5 7 30.21 1023 10 16 N/A
8:55 pm 20:55 Clear 55 13 36 2 47 47 N N/A 30.21 1023 10 16 N/A
9:15 pm 21:15 Clear 54 12 36 2 51 51 N N/A 30.24 1024 10 16 N/A
9:35 pm 21:35 Clear 55 13 36 2 47 47 NNE 5 7 30.24 1024 10 16 N/A
9:55 pm 21:55 Clear 54 12 36 2 51 51 NNE 5 7 30.24 1024 10 16 N/A
10:15 pm 22:15 Clear 54 12 36 2 51 51 N 5 7 30.24 1024 10 16 N/A
10:35 pm 22:35 Clear 52 11 37 3 58 58 NW 7 11 30.30 1026 10 16 N/A
10:55 pm 22:55 Clear 52 11 37 3 58 58 N 5 7 30.30 1026 10 16 N/A
11:15 pm 23:15 Clear 52 11 37 3 58 58 NNW 6 9 30.30 1026 10 16 N/A
11:35 pm 23:35 Clear 50 10 37 3 62 62 NNW 8 13 30.30 1026 10 16 N/A
11:55 pm 23:55 Partly Cloudy 50 10 37 3 62 62 N N/A 30.30 1026 10 16 N/A

Powered by AerisWeather